Regional Weather Roundup
Issued by NWS

Home | Current Version | Previous Version | Graphics & Text | Print | Product List | Glossary On
Versions: 1 2 3 4 5 6 7 8 9 10 11 12 13 14 15 16 17 18 19 20 21 22 23 24 25 26 27
000
ASUS45 KBOU 251707
RWRCO

WEATHER ROUNDUP FOR COLORADO
NATIONAL WEATHER SERVICE DENVER/BOULDER CO
1100 AM MDT SAT OCT 25 2014

NOTE: "FAIR" INDICATES FEW OR NO CLOUDS BELOW 12000 FEET WITH NO
SIGNIFICANT WEATHER AND/OR OBSTRUCTIONS TO VISIBILITY.

COZ001>005-013-030-031-251800-
...NORTHWEST COLORADO...

CITY           SKY/WX    TMP DP  RH WIND       PRES   REMARKS
CRAIG          SUNNY     61  29  29 E9        30.28F
HAYDEN         SUNNY     55  27  33 E9        30.29F
MEEKER         SUNNY     58  29  33 CALM      30.29F
MOUNT WERNER   NOT AVBL
STEAMBOAT SPGS SUNNY     51  26  37 CALM      30.32F
WALDEN         SUNNY     55  23  28 SW8       30.37F
$$

COZ006>008-011-251800-
...WEST CENTRAL VALLEYS...

CITY           SKY/WX    TMP DP  RH WIND       PRES   REMARKS
GRAND JUNCTION SUNNY     62  30  29 SE12      30.25F
MONTROSE       SUNNY     62  27  26 CALM      30.32F
EAGLE          SUNNY     45  28  53 CALM      30.41F
RIFLE          SUNNY     55  30  38 CALM      30.30F
DELTA          SUNNY     59  30  32 S3        30.30F
NUCLA          SUNNY     55  27  33 CALM      30.35F
$$

COZ017>023-064>068-251800-
...SOUTHWEST COLORADO...

CITY           SKY/WX    TMP DP  RH WIND       PRES   REMARKS
DURANGO        SUNNY     59  35  40 CALM      30.38F
CORTEZ         SUNNY     64  30  27 CALM      30.33F
PAGOSA SPRINGS SUNNY     61  35  37 CALM      30.43S
TELLURIDE      SUNNY     58  19  22 CALM      30.49F
WOLF CREEK PAS   N/A     48  12  23 S12         N/A
$$

COZ009-010-012-014-032>034-037-058>063-251800-
...CENTRAL COLORADO...

CITY           SKY/WX    TMP DP  RH WIND       PRES   REMARKS
ASPEN          SUNNY     55  19  24 N7        30.38F
BUENA VISTA    SUNNY     56  14  19 W3        30.42F
COPPER MTN     SUNNY     54 -11   6 S15       30.62F
BERTHOUD PASS  FAIR      43  39  87 SW6       30.66S
COTTONWOOD PAS SUNNY     57   9  14 E5        30.51F
GUNNISON       SUNNY     43  21  42 CALM      30.49F
KREMMLING      SUNNY     45  25  45 CALM        N/A
LEADVILLE      SUNNY     51  13  21 CALM      30.50F
MONARCH PASS   SUNNY     45   9  23 W12G17    30.74S
SALIDA         SUNNY     55  19  24 CALM      30.47F
SUNLIGHT       SUNNY     54  21  28 CALM      30.56F
WILKERSON PASS NOT AVBL
$$

COZ069>075-251800-
...SAN LUIS VALLEY/SANGRE DE CRISTO MOUNTAINS...

CITY           SKY/WX    TMP DP  RH WIND       PRES   REMARKS
ALAMOSA        SUNNY     54  28  36 CALM      30.42F
LA VETA PASS   SUNNY     59  27  29 SW5       30.54F
SAGUACHE       SUNNY     55  23  28 CALM      30.43F
$$

COZ035-036-038>040-251800-
...NORTHERN COLORADO FRONT RANGE...

CITY           SKY/WX    TMP DP  RH WIND       PRES   REMARKS
DENVER INTL AP SUNNY     71  24  17 SW7       30.24F
DMNS CITY PARK   N/A     69  24  18 SW7       30.24F
AURORA         MOSUNNY   69  25  18 S6        30.26F
FRONT RANGE AP SUNNY     73  23  15 CALM      30.26F
ERIE MUNI ARPT SUNNY     72  21  14 CALM      30.22F
BOULDER MUN AP SUNNY     72  28  20 E3        30.22F
CENTENNIAL     SUNNY     68  28  22 CALM      30.27F
BROOMFIELD     SUNNY     70  27  19 SE6       30.26F
FORT COLLINS   SUNNY     66  32  28 S7        30.23F
LONGMONT       SUNNY     74  25  16 CALM      30.23F
$$

COZ041-046-047-076>085-087-088-251800-
...PIKES PEAK/PALMER DIVIDE AND SOUTHERN FOOTHILLS...

CITY           SKY/WX    TMP DP  RH WIND       PRES   REMARKS
COLO. SPRINGS  SUNNY     73  16  11 E10       30.30S
A. F. ACADEMY  SUNNY     71  14  11 VRB2      30.31F
ELLICOTT       NOT AVBL
FALCON         SUNNY     70  16  12 NE10      30.34F
FORT CARSON    SUNNY     74  17  11 N5        30.27F
LIMON          SUNNY     74  24  15 N9        30.24F
MONUMENT HILL  SUNNY     64  16  15 NE6       30.33F
TRINIDAD       SUNNY     73  29  19 CALM      30.26F
$$

COZ042>045-048>051-090-091-251800-
...NORTHEAST COLORADO...

CITY           SKY/WX    TMP DP  RH WIND       PRES   REMARKS
GREELEY ARPT   SUNNY     64  34  32 SW3       30.22F
AKRON          SUNNY     69  31  24 W8        30.20S
BURLINGTON     SUNNY     73  31  21 N6        30.17F
WRAY           SUNNY     71  31  22 N3        30.15F
STERLING       SUNNY     64  36  34 S3        30.17F
HOLYOKE        SUNNY     68  34  28 NE3       30.16F
FORT MORGAN    SUNNY     64  33  30 SW10      30.21S
$$

COZ086-089-092>099-251800-
...SOUTHEAST COLORADO...

CITY           SKY/WX    TMP DP  RH WIND       PRES   REMARKS
PUEBLO         SUNNY     73  26  17 VRB7      30.21S
LA JUNTA       SUNNY     72  32  23 W8        30.17F
LAMAR          SUNNY     71  35  26 W10       30.13F
SPRINGFIELD      N/A     79  29  16 CALM      30.17S
$$



USA.gov is the U.S. government's official web portal to all federal, state and local government web resources and services.